EW4561 Weather Reports


Display with metric or nautical units.
time (UTC)temp
F
wind
direction
speed
MPH
gust
MPH
rain 1hr
in
rain 24hr
in
rain mn
in
humidity
%
barometer
mb
20180221224919 69 46 1.0 4.0 0.00 0.00 0.00 69 1016.6
20180221224318 69 56 0.0 3.0 0.00 0.00 0.00 70 1016.7
20180221223718 69 8 0.0 2.0 0.00 0.00 0.00 71 1016.7
20180221223118 68 358 0.0 2.0 0.00 0.00 0.00 72 1016.7
20180221222518 68 2 0.0 2.0 0.00 0.00 0.00 73 1016.8
20180221221918 68 305 0.0 2.0 0.00 0.00 0.00 74 1016.8
20180221221319 67 220 0.0 1.0 0.00 0.00 0.00 74 1016.8
20180221220719 67 191 0.0 2.0 0.00 0.00 0.00 75 1016.9
20180221220119 67 181 0.0 2.0 0.00 0.00 0.00 76 1016.9
20180221215518 66 0 0.0 0.0 0.00 0.00 0.00 77 1016.9
20180221214919 65 0 0.0 0.0 0.00 0.00 0.00 79 1016.9
20180221214319 65 0 0.0 0.0 0.00 0.00 0.00 81 1016.9
20180221213718 64 0 0.0 0.0 0.00 0.00 0.00 83 1016.8
20180221213118 63 297 0.0 1.0 0.00 0.00 0.00 83 1016.7
20180221212518 63 297 0.0 1.0 0.00 0.00 0.00 84 1016.7
20180221211918 63 0 0.0 0.0 0.00 0.00 0.00 85 1016.8
20180221211319 63 0 0.0 0.0 0.00 0.00 0.00 85 1016.6
20180221210719 62 0 0.0 0.0 0.00 0.00 0.00 85 1016.5
20180221210119 62 0 0.0 0.0 0.00 0.00 0.00 86 1016.5
20180221205518 62 0 0.0 0.0 0.00 0.00 0.00 86 1016.5
20180221204918 62 0 0.0 0.0 0.00 0.00 0.00 86 1016.4
20180221204318 62 0 0.0 0.0 0.00 0.00 0.00 86 1016.4
20180221203718 61 0 0.0 0.0 0.00 0.00 0.00 86 1016.5
20180221203119 61 0 0.0 0.0 0.00 0.00 0.00 87 1016.5
20180221202519 61 0 0.0 0.0 0.00 0.00 0.00 87 1016.5
20180221201919 61 0 0.0 0.0 0.00 0.00 0.00 86 1016.5
20180221201319 61 0 0.0 0.0 0.00 0.00 0.00 86 1016.4
20180221200719 61 0 0.0 0.0 0.00 0.00 0.00 87 1016.3
20180221200119 61 0 0.0 0.0 0.00 0.00 0.00 86 1016.2
20180221195518 61 0 0.0 0.0 0.00 0.00 0.00 86 1016.1
20180221194918 61 0 0.0 0.0 0.00 0.00 0.00 86 1016.1
20180221194318 61 0 0.0 0.0 0.00 0.00 0.00 87 1015.9
20180221193719 61 0 0.0 0.0 0.00 0.00 0.00 86 1015.9
20180221193118 61 0 0.0 0.0 0.00 0.00 0.00 86 1015.9
20180221192518 61 0 0.0 0.0 0.00 0.00 0.00 86 1016.0
20180221191918 61 0 0.0 0.0 0.00 0.00 0.00 86 1015.8
20180221191318 61 0 0.0 0.0 0.00 0.00 0.00 87 1015.7
20180221190718 61 0 0.0 0.0 0.00 0.00 0.00 87 1015.8
20180221190118 61 0 0.0 0.0 0.00 0.00 0.00 86 1016.0
20180221185518 61 0 0.0 0.0 0.00 0.00 0.00 86 1016.0
20180221184918 61 0 0.0 0.0 0.00 0.00 0.00 86 1015.8
20180221184319 61 0 0.0 0.0 0.00 0.00 0.00 86 1015.8
20180221183718 61 0 0.0 0.0 0.00 0.00 0.00 86 1015.9
20180221183119 61 0 0.0 0.0 0.00 0.00 0.00 85 1015.9
20180221182519 61 0 0.0 0.0 0.00 0.00 0.00 85 1015.8
20180221181919 61 0 0.0 0.0 0.00 0.00 0.00 85 1015.8
20180221181319 61 0 0.0 0.0 0.00 0.00 0.00 84 1015.8
20180221180719 62 0 0.0 0.0 0.00 0.00 0.00 84 1015.8
20180221180119 62 0 0.0 0.0 0.00 0.00 0.00 84 1015.7
20180221175519 62 0 0.0 0.0 0.00 0.00 0.00 84 1015.6
20180221174919 62 0 0.0 0.0 0.00 0.00 0.00 83 1015.6
20180221174318 62 0 0.0 0.0 0.00 0.00 0.00 83 1015.6
20180221173718 62 0 0.0 0.0 0.00 0.00 0.00 83 1015.5
20180221173119 62 0 0.0 0.0 0.00 0.00 0.00 83 1015.5
20180221172518 62 0 0.0 0.0 0.00 0.00 0.00 82 1015.4
20180221171919 62 0 0.0 0.0 0.00 0.00 0.00 82 1015.4
20180221171319 62 0 0.0 0.0 0.00 0.00 0.00 82 1015.3
20180221170719 62 0 0.0 0.0 0.00 0.00 0.00 82 1015.4
20180221170118 62 0 0.0 0.0 0.00 0.00 0.00 82 1015.5
20180221165518 62 0 0.0 0.0 0.00 0.00 0.00 82 1015.6
20180221164918 63 0 0.0 0.0 0.00 0.00 0.00 82 1015.6
20180221164318 63 0 0.0 0.0 0.00 0.00 0.00 81 1015.6
20180221163719 63 0 0.0 0.0 0.00 0.00 0.00 81 1015.5
20180221163119 63 0 0.0 0.0 0.00 0.00 0.00 81 1015.5
20180221162521 63 0 0.0 0.0 0.00 0.00 0.00 81 1015.5
20180221161919 63 0 0.0 0.0 0.00 0.00 0.00 81 1015.5
20180221161319 63 0 0.0 0.0 0.00 0.00 0.00 81 1015.5
20180221160719 63 0 0.0 0.0 0.00 0.00 0.00 80 1015.7
20180221160119 63 0 0.0 0.0 0.00 0.00 0.00 80 1015.7
20180221155519 63 0 0.0 0.0 0.00 0.00 0.00 79 1015.8
20180221154919 63 0 0.0 0.0 0.00 0.00 0.00 79 1015.7
20180221154319 63 0 0.0 0.0 0.00 0.00 0.00 79 1015.7
20180221153719 63 0 0.0 0.0 0.00 0.00 0.00 79 1015.6
20180221153119 63 0 0.0 0.0 0.00 0.00 0.00 79 1015.8
20180221152520 63 0 0.0 0.0 0.00 0.00 0.00 78 1015.9
20180221151919 63 0 0.0 0.0 0.00 0.00 0.00 78 1015.9
20180221151319 63 0 0.0 0.0 0.00 0.00 0.00 78 1016.0
20180221150719 63 0 0.0 0.0 0.00 0.00 0.00 78 1016.0
20180221150119 64 0 0.0 0.0 0.00 0.00 0.00 77 1016.1
20180221145519 64 0 0.0 0.0 0.00 0.00 0.00 77 1016.1
20180221144919 64 0 0.0 0.0 0.00 0.00 0.00 77 1016.1
20180221144322 64 0 0.0 0.0 0.00 0.00 0.00 77 1016.2
20180221143719 64 0 0.0 0.0 0.00 0.00 0.00 77 1016.4
20180221143118 64 0 0.0 0.0 0.00 0.00 0.00 77 1016.1
20180221142519 64 0 0.0 0.0 0.00 0.00 0.00 77 1016.2
20180221141919 64 0 0.0 0.0 0.00 0.00 0.00 77 1016.2
20180221141318 64 0 0.0 0.0 0.00 0.00 0.00 76 1016.5
20180221140719 64 0 0.0 0.0 0.00 0.00 0.00 76 1016.4
20180221140119 64 0 0.0 0.0 0.00 0.00 0.00 76 1016.4
20180221135519 64 0 0.0 0.0 0.00 0.00 0.00 76 1016.3
20180221134920 64 0 0.0 0.0 0.00 0.00 0.00 75 1016.4
20180221134319 64 0 0.0 0.0 0.00 0.00 0.00 75 1016.6
20180221133719 65 0 0.0 0.0 0.00 0.00 0.00 74 1016.4
20180221133119 65 0 0.0 0.0 0.00 0.00 0.00 74 1016.5
20180221132519 65 0 0.0 0.0 0.00 0.00 0.00 74 1016.5
20180221131919 65 0 0.0 0.0 0.00 0.00 0.00 73 1016.7
20180221131319 65 0 0.0 0.0 0.00 0.00 0.00 73 1016.7
20180221130719 65 0 0.0 0.0 0.00 0.00 0.00 72 1016.8
20180221130119 65 0 0.0 0.0 0.00 0.00 0.00 72 1016.6
20180221125519 65 0 0.0 0.0 0.00 0.00 0.00 71 1016.6
20180221124919 65 0 0.0 0.0 0.00 0.00 0.00 71 1016.8
20180221124319 66 0 0.0 0.0 0.00 0.00 0.00 71 1016.8
20180221123718 66 0 0.0 0.0 0.00 0.00 0.00 70 1016.7
20180221123119 66 0 0.0 0.0 0.00 0.00 0.00 70 1017.0
20180221122518 66 0 0.0 0.0 0.00 0.00 0.00 70 1017.2
20180221121919 66 0 0.0 0.0 0.00 0.00 0.00 70 1017.1
20180221121318 66 0 0.0 0.0 0.00 0.00 0.00 69 1017.0
20180221120721 67 0 0.0 0.0 0.00 0.00 0.00 69 1017.1
20180221120119 67 0 0.0 0.0 0.00 0.00 0.00 68 1017.1
20180221115519 67 0 0.0 0.0 0.00 0.00 0.00 68 1017.2
20180221114919 67 0 0.0 0.0 0.00 0.00 0.00 68 1017.1
20180221114318 67 0 0.0 0.0 0.00 0.00 0.00 67 1017.0
20180221113718 68 0 0.0 0.0 0.00 0.00 0.00 66 1017.0
20180221113118 68 0 0.0 0.0 0.00 0.00 0.00 66 1017.0
20180221112518 68 0 0.0 0.0 0.00 0.00 0.00 65 1017.1
20180221111919 69 0 0.0 0.0 0.00 0.00 0.00 65 1016.9
20180221111319 69 0 0.0 0.0 0.00 0.00 0.00 63 1016.9
20180221110719 69 0 0.0 0.0 0.00 0.00 0.00 63 1016.8
20180221110119 69 0 0.0 0.0 0.00 0.00 0.00 62 1016.9
20180221105519 69 0 0.0 0.0 0.00 0.00 0.00 62 1016.8
20180221104918 69 0 0.0 0.0 0.00 0.00 0.00 62 1016.9
20180221104319 69 0 0.0 0.0 0.00 0.00 0.00 62 1016.9
20180221103719 70 0 0.0 0.0 0.00 0.00 0.00 62 1017.1
20180221103119 70 0 0.0 0.0 0.00 0.00 0.00 61 1017.1
20180221102519 70 0 0.0 0.0 0.00 0.00 0.00 60 1017.0
20180221101919 70 38 1.0 2.0 0.00 0.00 0.00 60 1016.9
20180221101318 71 30 1.0 4.0 0.00 0.00 0.00 59 1016.6
20180221100719 71 34 1.0 4.0 0.00 0.00 0.00 59 1016.4
20180221100119 71 65 1.0 3.0 0.00 0.00 0.00 59 1016.4
20180221095518 71 49 1.0 3.0 0.00 0.00 0.00 58 1016.4
20180221094918 71 42 2.0 5.0 0.00 0.00 0.00 58 1016.4
20180221094318 71 55 3.0 6.0 0.00 0.00 0.00 58 1016.1
20180221093719 71 50 3.0 8.0 0.00 0.00 0.00 58 1016.0
20180221093119 71 54 3.0 8.0 0.00 0.00 0.00 58 1015.9
20180221092518 71 55 3.0 8.0 0.00 0.00 0.00 58 1015.8
20180221091918 71 47 2.0 8.0 0.00 0.00 0.00 57 1015.9
20180221091319 71 46 1.0 8.0 0.00 0.00 0.00 58 1015.8
20180221090719 72 61 2.0 5.0 0.00 0.00 0.00 57 1015.7
20180221090119 72 66 2.0 5.0 0.00 0.00 0.00 57 1015.7
20180221085519 72 66 2.0 9.0 0.00 0.00 0.00 57 1015.6
20180221084919 72 66 2.0 9.0 0.00 0.00 0.00 57 1015.4
20180221084319 72 58 3.0 7.0 0.00 0.00 0.00 56 1015.3
20180221083719 73 65 3.0 10.0 0.00 0.00 0.00 55 1015.3
20180221083119 73 76 3.0 10.0 0.00 0.00 0.00 55 1015.3
20180221082519 73 78 2.0 8.0 0.00 0.00 0.00 56 1015.2
20180221081919 74 79 2.0 8.0 0.00 0.00 0.00 56 1015.2
20180221081319 74 74 3.0 8.0 0.00 0.00 0.00 55 1015.2
20180221080719 74 75 2.0 9.0 0.00 0.00 0.00 56 1015.1
20180221080119 74 89 2.0 9.0 0.00 0.00 0.00 55 1015.1
20180221075519 74 99 3.0 8.0 0.00 0.00 0.00 55 1014.9
20180221074919 74 90 4.0 9.0 0.00 0.00 0.00 55 1015.0
20180221074319 75 78 3.0 11.0 0.00 0.00 0.00 55 1014.9
20180221073719 75 77 4.0 11.0 0.00 0.00 0.00 55 1014.8
20180221073119 75 76 5.0 10.0 0.00 0.00 0.00 54 1014.7
20180221072519 75 70 5.0 12.0 0.00 0.00 0.00 54 1014.6
20180221071919 76 68 4.0 12.0 0.00 0.00 0.00 53 1014.5
20180221071319 76 76 3.0 11.0 0.00 0.00 0.00 53 1014.4
20180221070719 76 84 3.0 10.0 0.00 0.00 0.00 53 1014.4
20180221070119 76 84 3.0 10.0 0.00 0.00 0.00 53 1014.5
20180221065519 76 77 3.0 10.0 0.00 0.00 0.00 52 1014.6
20180221064919 77 77 3.0 10.0 0.00 0.00 0.00 51 1014.6
20180221064319 77 100 4.0 11.0 0.00 0.00 0.00 51 1014.6
20180221063719 77 112 4.0 12.0 0.00 0.00 0.00 52 1014.6
20180221063119 77 113 5.0 9.0 0.00 0.00 0.00 52 1014.6
20180221062519 77 122 6.0 12.0 0.00 0.00 0.00 52 1014.6
20180221061919 77 120 4.0 12.0 0.00 0.00 0.00 51 1014.6
20180221061319 78 110 3.0 13.0 0.00 0.00 0.00 50 1014.6
20180221060719 78 108 3.0 10.0 0.00 0.00 0.00 49 1014.6
20180221060119 78 111 4.0 8.0 0.00 0.00 0.00 48 1014.5
20180221055519 78 118 5.0 9.0 0.00 0.00 0.00 49 1014.6
20180221054919 78 118 4.0 13.0 0.00 0.00 0.00 49 1014.6
20180221054319 79 79 3.0 7.0 0.00 0.00 0.00 48 1014.8
20180221053719 79 83 4.0 10.0 0.00 0.00 0.00 46 1014.8
20180221053119 79 63 4.0 10.0 0.00 0.00 0.00 47 1014.8
20180221052519 79 56 4.0 11.0 0.00 0.00 0.00 47 1014.8
20180221051919 79 56 3.0 11.0 0.00 0.00 0.00 47 1014.9
20180221051319 80 33 3.0 7.0 0.00 0.00 0.00 46 1014.7
20180221050719 79 22 3.0 7.0 0.00 0.00 0.00 43 1014.7
20180221050119 79 45 2.0 9.0 0.00 0.00 0.00 43 1014.6
20180221045519 80 48 3.0 9.0 0.00 0.00 0.00 43 1014.8
20180221044919 80 326 3.0 8.0 0.00 0.00 0.00 44 1014.8
20180221044319 80 267 2.0 9.0 0.00 0.00 0.00 42 1014.9
20180221043719 80 286 3.0 9.0 0.00 0.00 0.00 43 1015.0
20180221043119 79 350 3.0 7.0 0.00 0.00 0.00 44 1015.0
20180221042520 80 351 3.0 10.0 0.00 0.00 0.00 43 1015.2
20180221041919 79 345 4.0 10.0 0.00 0.00 0.00 44 1015.2
20180221041318 78 45 5.0 12.0 0.00 0.00 0.00 46 1015.3
20180221040719 78 133 3.0 10.0 0.00 0.00 0.00 45 1015.3
20180221040119 78 135 2.0 8.0 0.00 0.00 0.00 47 1015.4
20180221035519 77 104 3.0 7.0 0.00 0.00 0.00 49 1015.4
20180221034919 77 122 2.0 9.0 0.00 0.00 0.00 49 1015.4
20180221034319 77 93 2.0 9.0 0.00 0.00 0.00 48 1015.6
20180221033718 77 30 2.0 6.0 0.00 0.00 0.00 48 1015.9
20180221033118 77 65 2.0 6.0 0.00 0.00 0.00 48 1016.0
20180221032520 78 52 3.0 6.0 0.00 0.00 0.00 47 1016.2
20180221031919 77 3 3.0 6.0 0.00 0.00 0.00 47 1016.3
20180221031319 78 322 2.0 8.0 0.00 0.00 0.00 48 1016.4
20180221030719 77 334 2.0 6.0 0.00 0.00 0.00 49 1016.4
20180221030119 76 36 2.0 6.0 0.00 0.00 0.00 49 1016.4
20180221025519 76 65 3.0 8.0 0.00 0.00 0.00 51 1016.5
20180221024919 76 46 3.0 10.0 0.00 0.00 0.00 51 1016.6
20180221024320 76 48 2.0 10.0 0.00 0.00 0.00 51 1016.8
20180221023719 76 330 2.0 8.0 0.00 0.00 0.00 51 1016.9
20180221023119 75 285 3.0 7.0 0.00 0.00 0.00 52 1016.9
20180221022519 75 294 4.0 7.0 0.00 0.00 0.00 52 1016.9
20180221021919 75 287 4.0 8.0 0.00 0.00 0.00 53 1017.0
20180221021319 74 286 3.0 7.0 0.00 0.00 0.00 54 1016.9
20180221020719 74 285 2.0 8.0 0.00 0.00 0.00 55 1017.0
20180221020119 75 315 2.0 8.0 0.00 0.00 0.00 53 1017.1
20180221015519 74 12 1.0 5.0 0.00 0.00 0.00 53 1017.1
20180221014919 75 25 1.0 5.0 0.00 0.00 0.00 52 1017.2
20180221014320 74 72 2.0 4.0 0.00 0.00 0.00 54 1017.3
20180221013719 74 307 2.0 4.0 0.00 0.00 0.00 54 1017.4
20180221013119 74 296 2.0 4.0 0.00 0.00 0.00 53 1017.6
20180221012519 73 291 2.0 6.0 0.00 0.00 0.00 55 1017.7
20180221011919 73 289 1.0 6.0 0.00 0.00 0.00 55 1017.8
20180221011319 73 348 2.0 4.0 0.00 0.00 0.00 55 1017.9
20180221010719 74 61 2.0 6.0 0.00 0.00 0.00 54 1018.0
20180221010120 73 68 1.0 6.0 0.00 0.00 0.00 55 1017.9
20180221005519 74 42 1.0 5.0 0.00 0.00 0.00 54 1018.0
20180221004919 74 222 1.0 6.0 0.00 0.00 0.00 56 1018.1
20180221004319 73 286 1.0 4.0 0.00 0.00 0.00 56 1018.2
20180221003719 73 289 1.0 4.0 0.00 0.00 0.00 56 1018.4
20180221003119 72 149 3.0 5.0 0.00 0.00 0.00 57 1018.4
20180221002520 72 152 3.0 9.0 0.00 0.00 0.00 58 1018.6
20180221001919 73 152 3.0 9.0 0.00 0.00 0.00 57 1018.7
20180221001318 74 139 1.0 8.0 0.00 0.00 0.00 56 1018.7
20180221000719 73 122 1.0 8.0 0.00 0.00 0.00 56 1018.7
20180221000119 72 45 2.0 5.0 0.00 0.00 0.00 60 1018.7
20180220235520 71 13 3.0 7.0 0.00 0.00 0.00 61 1018.8
20180220234919 70 25 3.0 7.0 0.00 0.00 0.00 61 1018.9
20180220234319 71 39 2.0 7.0 0.00 0.00 0.00 60 1018.9
20180220233719 70 52 1.0 7.0 0.00 0.00 0.00 61 1018.9
20180220233119 70 170 1.0 3.0 0.00 0.00 0.00 61 1019.0
20180220232519 70 121 1.0 4.0 0.00 0.00 0.00 61 1019.0
20180220231919 69 167 1.0 4.0 0.00 0.00 0.00 62 1019.0
20180220231319 69 239 2.0 3.0 0.00 0.00 0.00 62 1019.1
20180220230719 69 211 1.0 4.0 0.00 0.00 0.00 62 1019.0
20180220230119 69 204 1.0 4.0 0.00 0.00 0.00 62 1019.1
20180220225519 68 224 2.0 5.0 0.00 0.00 0.00 63 1019.2